Tracking 20369 objects as of 17-Feb-2020
HD Live streaming from Space Station
objects crossing your sky now

SL-8 R/B

Track SL-8 R/B now!
10-day predictions
SL-8 R/B is classified as:


NORAD ID: 19257
Int'l Code: 1988-053B
Perigee: 758.8 km
Apogee: 789.3 km
Inclination: 74.0 °
Period: 100.2 minutes
Semi major axis: 7145 km
RCS: 4.3504 m2 (large)
Launch date: June 21, 1988
Source: Commonwealth of Independent States (former USSR) (CIS)
Launch site: PLESETSK MISSILE AND SPACE COMPLEX (PKMTR)

Note: This is a ROCKET BODY
aabbcc
Your satellite tracking list
Your tracking list is empty




NASA's NSSDC Master Catalog

Two Line Element Set (TLE):
1 19257U 88053B   20047.86466176 -.00000104 +00000-0 -25814-4 0  9996
2 19257 074.0461 224.5483 0021323 235.2676 227.4211 14.37458137658537
Source of the keplerian elements: AFSPC